Other Public Products
Issued by NWS Grand Forks, ND

Home | Current Version | Previous Version | Text Only | Print | Product List | Glossary Off
Versions: 1 2 3 4 5 6 7 8 9 10 11 12 13 14 15 16 17 18 19 20 21 22 23 24 25 26 27 28 29 30 31 32 33 34 35 36 37 38 39 40 41 42 43 44 45 46 47 48 49 50

000
FPUS83 KFGF 260931
OPUFGF
PRAIRIE TO PINES WEATHER ROUNDUP
NATIONAL WEATHER SERVICE EASTERN NORTH DAKOTA/GRAND FORKS ND
400 AM CDT TUE JUL 26 2016

 **SATELLITE DATA USED TO AUGMENT SKY COVER AT AUTOMATED STATIONS**
 *****  WEATHER ACROSS EASTERN NORTH DAKOTA  *****

CITY           SKY/WX    TMP DP  RH WIND       PRES   REMARKS
GRAND FORKS    CLEAR     66  63  90 N6        29.92R
GRAND FORKS AF CLEAR     66  65  97 N3        29.93S
GRAND CITY NWS   N/A     66 N/A N/A N6          N/A
BUXTON           N/A     68  67  98 N3          N/A
DEVILS LAKE    CLOUDY    67  64  90 CALM      29.98S
FARGO          CLOUDY    74  62  66 SW9       29.91F
WAHPETON ARPT  CLOUDY    66  63  88 SE3       29.95R
$$

 *****  WEATHER ACROSS CENTRAL AND WESTERN NORTH DAKOTA  *****

CITY           SKY/WX    TMP DP  RH WIND       PRES   REMARKS
JAMESTOWN      CLOUDY    69  68  96 CALM      29.94R
BISMARCK       PTCLDY    71  69  93 NE8       29.95S
MINOT          CLEAR     65  61  87 CALM      30.00R
MINOT AFB      CLEAR     57  56  95 NW3       29.99S
GARRISON         N/A     65  63  93 NE5       29.99F
WILLISTON      CLEAR     64  58  80 N6        30.02R
DICKINSON      CLEAR     63  62  97 NE7       30.00R
HETTINGER      CLEAR     69  63  81 NE6       30.01R
$$

 *****  OTHER OBSERVATIONS NORTHEAST NORTH DAKOTA  *****

CITY           SKY/WX    TMP DP  RH WIND       PRES   REMARKS
WALHALLA       FAIR      63  57  82 CALM      29.96S
LANGDON        FAIR      61  61 100 CALM      29.99S
CAVALIER       FAIR      64  64 100 CALM      29.95S
GRAFTON        FAIR      64  64 100 CALM      29.96R
CANDO          FAIR      61  61 100 N8        30.01S
FORT TOTTEN      N/A     67  66  97 NE2       29.95S
ROLLA          FAIR      59  59 100 W5        30.02S
RUGBY          NOT AVBL
 ***** THE ABOVE OBSERVATIONS ARE NON NWS ARE NOT QUALITY
        CONTROLLED AND MAY MIS-REPORT RAIN FOR SNOW...
$$

 *****  OTHER OBSERVATIONS SOUTHEAST NORTH DAKOTA *****

CITY           SKY/WX    TMP DP  RH WIND       PRES   REMARKS
COOPERSTOWN    NOT AVBL
VALLEY CITY      N/A     66  64  94 W7        29.95F
OAKES            N/A    N/A N/A N/A MISG        N/A
GWINNER        FAIR      72  61  68 SW15      29.96F
SHEYENNE NWR     N/A     70  61  72 W5        29.95S
BUFFALO          N/A     67  62  84 NW5         N/A
WYNDMERE         N/A     68  64  88 N2          N/A
 ***** THE ABOVE OBSERVATIONS ARE NON NWS ARE NOT QUALITY
       CONTROLLED AND MAY MIS-REPORT RAIN FOR SNOW...
$$

  *****  WEATHER ACROSS NORTHERN MINNESOTA  *****

CITY           SKY/WX    TMP DP  RH WIND       PRES   REMARKS
FLAG ISLAND    CLEAR     70  63  78 NW3       29.95S
WARROAD        CLEAR     61  55  82 CALM      29.96S
ROSEAU         CLEAR     61  55  82 CALM      29.95S
HALLOCK        CLEAR     63  61  94 CALM      29.94R
THF RVR FALLS  CLEAR     68  65  90 E6        29.95S
HALSTAD        NOT AVBL
FOSSTON        CLEAR     63  61  94 CALM      29.95F
BAUDETTE       FOG       60  60 100 CALM      29.96S VSB 1/4
WASKISH        CLEAR     64  64 100 CALM      29.95S
CROOKSTON      CLEAR     68  64  88 NE5       29.93S
$$
  *****  WEATHER ACROSS CENTRAL AND WEST MINNESOTA  *****

CITY           SKY/WX    TMP DP  RH WIND       PRES   REMARKS
BEMIDJI        CLEAR     66  64  94 CALM      29.96S
PARK RAPIDS    PTCLDY    70  63  78 S6        29.97F
WADENA         CLEAR     66  63  88 S6        29.97F
DETROIT LAKES  CLOUDY    72  63  73 S6        29.97S
MOORHEAD       CLOUDY    70  64  83 S14       29.92F
FERGUS FALLS   CLOUDY    70  63  78 S3        29.98R
ELBOW LAKE     FAIR      68  64  86 S9        29.97S
MORRIS MN      CLEAR     66  64  94 S8        29.97F
STAPLES        MOCLDY    66  63  88 S6        29.98F
WHEATON        PTCLDY    70  64  83 S8        29.96S
$$
  *****  WEATHER ELSEWHERE ACROSS MINNESOTA  *****

CITY           SKY/WX    TMP DP  RH WIND       PRES   REMARKS
DULUTH         PTCLDY    70  65  84 W10       30.00F
INTRNTL FALLS  CLOUDY    63  61  93 CALM      29.97R
ELY            CLOUDY    61  57  88 CALM      29.99S
CLOQUET        PTCLDY    70  63  78 SW7       30.00S
BRAINERD       MOCLDY    71  65  81 S7        29.99F
HIBBING        MOCLDY    59  58  96 CALM      29.98F FOG
ALEXANDRIA     PTCLDY    73  62  68 SW14      30.01F
SAINT CLOUD    MOCLDY    67  66  97 S3        30.02S
MINNEAPOLIS    PTCLDY    73  64  73 SW5       30.04S
$$

  *****  WEATHER ACROSS SOUTH DAKOTA  *****

CITY           SKY/WX    TMP DP  RH WIND       PRES   REMARKS
SIOUX FALLS    CLEAR     70  63  78 SW6       30.07F
BROOKINGS      CLEAR     67  63  87 S9        30.05F
WATERTOWN      CLEAR     70  63  78 S8        30.03S
HURON          CLEAR     66  59  78 S8        30.00F
SISSETON         N/A     76  60  57 W26G33    29.92F
ABERDEEN       CLEAR     66  58  75 S8        29.96S
MITCHELL       CLEAR     66  62  87 S6        30.03F
PIERRE         PTCLDY    76  62  62 S16G26    29.96F
MOBRIDGE       MOCLDY    77  60  55 S8        29.93S
RAPID CITY     PTCLDY    67  59  75 S7        30.00F
$$

  *****  SOME WEATHER IN NEARBY STATES *****

CITY           SKY/WX    TMP DP  RH WIND       PRES   REMARKS
GLASGOW MT     PTCLDY    67  60  78 SE7       30.04R
GREAT FALLS MT PTCLDY    64  52  64 NE7       30.08S
CHEYENNE WY    PTCLDY    60  53  77 W6        30.19F
SCOTTSBLUFF NE CLEAR     67  61  81 E10       30.06F
OMAHA NE       CLEAR     65  62  90 CALM      30.08S
DES MOINES IA  CLEAR     72  66  81 CALM      30.07S
DAVENPORT IA   CLEAR     65  63  93 NW6       30.07R
CHICAGO IL     PTCLDY    70  63  78 CALM      30.03S
EAU CLAIRE WI  CLEAR     66  65  96 CALM      30.05S
LA CROSSE WI   PTCLDY    67  65  93 SE5       30.06S
$$

  *****  SOME NATIONAL WEATHER *****

CITY           SKY/WX    TMP DP  RH WIND       PRES   REMARKS
LA GUARDIA NY  CLEAR     76  69  79 W9        29.86S
RALEIGH NC     PTCLDY    78  72  81 SW9       30.00R
ATLANTA GA     CLEAR     75  73  93 SW5       30.05F
NEW ORLEANS LA PTCLDY    80  76  87 SE3       29.90R
OKLAHOMA CITY  CLOUDY    73  71  93 S5        30.00F
ALBUQUERQUE NM CLOUDY    72  57  59 E16       30.25F
SALT LAKE CITY PTCLDY    80  41  24 SE10      30.01F
LOS ANGELES CA MOCLDY    68  64  87 NW6       29.91F
BOISE ID       CLEAR     74  38  27 S5        29.94R
SEATTLE WA     PTCLDY    61  59  93 SW6       30.11R
$$

*** WEATHER ACROSS MANITOBA...SASKATCHEWAN AND ONTARIO ***
                ***ONTARIO***

CITY           SKY/WX    TMP DP  RH WIND       PRES   REMARKS
GERALDTON      PTCLDY    64  59  82 W7        29.87R
THUNDER BAY    CLEAR     61  59  94 W6        29.93S
SIOUX LOOKOUT  PTCLDY    63  61  94 N5        29.93S
TORONTO        CLEAR     64  57  77 W8        29.94R
BIG TROUT LK   NOT AVBL
PICKLE LAKE    NOT AVBL
DRYDEN         CLEAR     63  59  88 W7        29.95S
KENORA         PTCLDY    68  61  77 NW5       29.96S
$$
                *** MANITOBA***

CITY           SKY/WX    TMP DP  RH WIND       PRES   REMARKS
BRANDON        MOCLDY    64  59  82 N9        30.00S
DAUPHIN        CLEAR     59  54  82 W7        30.01R
ISLAND LAKE    PTCLDY    63  55  77 NW14G21   29.85R
PILOT MOUND      N/A     59  57  94 S2          N/A
THE PAS        CLEAR     61  52  72 N9G17     30.02R
THOMPSON       MOCLDY    57  48  72 NW12G21   29.91
WINNIPEG       CLEAR     64  63  94 NE5       29.95S
LYNN LAKE      CLEAR     48  45  87 MISG      30.02R
CHURCHILL      LGT RAIN  46  46 100 NE14      29.85R
GILLAM         CLOUDY    57  52  82 NW17      29.77R
$$
                ***SASKATCHEWAN***

CITY           SKY/WX    TMP DP  RH WIND       PRES   REMARKS
ESTEVAN        PTCLDY    63  61  94 NE7       30.03F
KINDERSLEY     MOCLDY    61  52  72 E8        30.08S
LLOYDMINSTER   CLEAR     55  50  82 S8        30.09R
PRINCE ALBERT  PTCLDY    50  46  87 CALM      30.08R
REGINA         CLEAR     55  54  94 NW2       30.08F
YORKTON        CLEAR     57  54  88 SW5       30.05S   C1F1C2F2C3F3C4F4C5F5C6F6C7F7C8F8C9F9CaFaCbFbCcFcCdFdCe!



USA.gov is the U.S. government's official web portal to all federal, state and local government web resources and services.